Weather History for Alturas, CA

Change the Weather History Date:

Thursday, June 13, 2013

  Actual Average Record
Temperature  
Mean Temperature 52 °F 59 °F  
Max Temperature 67 °F 77 °F 95 °F (1933)
Min Temperature 36 °F 41 °F 27 °F (1952)
Degree Days  
Heating Degree Days 13 7  
Month to date heating degree days 40 105  
Since 1 June heating degree days 40 105  
Since 1 July heating degree days 6389 6862  
Cooling Degree Days 0 0  
Month to date cooling degree days 19 0  
Year to date cooling degree days 19 0  
Since 1 June cooling degree days 19 0  
Moisture  
Dew Point 29 °F    
Average Humidity 50    
Maximum Humidity 76    
Minimum Humidity 23    
Precipitation  
Precipitation 0.00 in 0.03 in 0.56 in (1986)
Month to date precipitation 0.00 0.64  
Year to date precipitation 4.07 8.18  
Sea Level Pressure  
Sea Level Pressure 30.10 in    
Wind  
Wind Speed 8 mph (WNW)    
Max Wind Speed 24 mph    
Max Gust Speed 35 mph    
Visibility 10 miles    
Events      
T = Trace of Precipitation, MM = Missing Value Source: NWS Daily Summary

Daily Weather History Graph

Daily Weather History Graph

Search for Another Location

Airport:

Trip Planner

Search our weather history database for the weather conditions in past years. The results will help you decide how hot, cold, wet, or windy it might be!

Date:

Astronomy

Jun. 13, 2013 Rise Set
Actual Time 5:27 AM PDT 8:37 PM PDT
Civil Twilight 4:53 AM PDT 9:11 PM PDT
Nautical Twilight 4:10 AM PDT 9:54 PM PDT
Astronomical Twilight 3:18 AM PDT 10:46 PM PDT
Moon 10:12 AM PDT (6/13) 11:42 PM PDT (6/13)
Length of Visible Light 16h 17m
Length of Day
15h 09m
Waxing Crescent, 22% of the Moon is Illuminated
Jun 13
Waxing Crescent
Jun 16
First Quarter
Jun 23
Full
Jun 29
Last Quarter
Jul 8
New

Hourly Weather History & Observations

Time (PDT) Temp. Windchill Dew Point Humidity Pressure Visibility Wind Dir Wind Speed Gust Speed Precip Events Conditions
12:55 AM 46.9 °F - 33.1 °F 59% 30.02 in 10.0 mi West 5.8 mph - N/A   Overcast
1:55 AM 46.0 °F 42.5 °F 32.0 °F 58% 30.01 in 10.0 mi West 6.9 mph - N/A   Mostly Cloudy
2:55 AM 42.1 °F - 32.0 °F 67% 30.04 in 10.0 mi Calm Calm - N/A   Partly Cloudy
3:55 AM 41.0 °F 39.0 °F 30.9 °F 67% 30.04 in 10.0 mi ESE 3.5 mph - N/A   Partly Cloudy
4:55 AM 37.9 °F - 30.0 °F 73% 30.05 in 10.0 mi Calm Calm - N/A   Scattered Clouds
5:55 AM 37.0 °F 34.5 °F 30.0 °F 76% 30.07 in 10.0 mi Variable 3.5 mph - N/A   Partly Cloudy
6:55 AM 46.0 °F 43.1 °F 34.0 °F 63% 30.08 in 10.0 mi West 5.8 mph - N/A   Partly Cloudy
7:55 AM 48.9 °F - 34.0 °F 56% 30.08 in 10.0 mi West 5.8 mph - N/A   Clear
8:55 AM 52.0 °F - 33.1 °F 49% 30.09 in 10.0 mi Calm Calm - N/A   Clear
9:55 AM 55.0 °F - 28.9 °F 37% 30.09 in 10.0 mi Variable 5.8 mph - N/A   Clear
10:55 AM 57.9 °F - 30.0 °F 35% 30.09 in 10.0 mi WNW 6.9 mph - N/A   Clear
11:55 AM 59.0 °F - 27.0 °F 29% 30.09 in 10.0 mi SSW 5.8 mph - N/A   Clear
12:55 PM 63.0 °F - 25.0 °F 24% 30.08 in 10.0 mi WNW 9.2 mph 17.3 mph N/A   Scattered Clouds
1:55 PM 64.9 °F - 27.0 °F 24% 30.08 in 10.0 mi NW 10.4 mph 27.6 mph N/A   Partly Cloudy
2:55 PM 64.9 °F - 28.0 °F 25% 30.09 in 10.0 mi NW 17.3 mph 29.9 mph N/A   Mostly Cloudy
3:55 PM 62.1 °F - 26.1 °F 25% 30.10 in 10.0 mi WNW 9.2 mph 19.6 mph N/A   Mostly Cloudy
4:55 PM 63.0 °F - 27.0 °F 26% 30.12 in 10.0 mi NW 19.6 mph 29.9 mph N/A   Mostly Cloudy
5:55 PM 64.0 °F - 27.0 °F 25% 30.12 in 10.0 mi WNW 19.6 mph 25.3 mph N/A   Clear
6:55 PM 60.1 °F - 24.1 °F 25% 30.13 in 10.0 mi NW 20.7 mph 26.5 mph N/A   Clear
7:55 PM 57.0 °F - 21.0 °F 25% 30.15 in 10.0 mi NW 16.1 mph 24.2 mph N/A   Clear
8:55 PM 54.0 °F - 25.0 °F 33% 30.16 in 10.0 mi WNW 9.2 mph - N/A   Clear
9:55 PM 51.1 °F - 28.0 °F 41% 30.18 in 10.0 mi WNW 9.2 mph - N/A   Clear
10:55 PM 45.0 °F 41.8 °F 28.9 °F 53% 30.19 in 10.0 mi WNW 5.8 mph - N/A   Clear
11:55 PM 43.0 °F 38.8 °F 28.9 °F 58% 30.21 in 10.0 mi SE 6.9 mph - N/A   Clear